| time (UTC) | temp F | wind direction | speed MPH | gust MPH | rain 1hr in | rain 24hr in | rain mn in | humidity % | barometer mb |
| 20260507062608 | 35 | 6 | 2.0 | 2.0 | 0.00 | 0.00 | 0.04 | 54 | 856.0 |
| 20260507062108 | 35 | 351 | 1.0 | 2.0 | 0.00 | 0.00 | 0.04 | 54 | 856.0 |
| 20260507061608 | 35 | 338 | 1.0 | 2.0 | 0.00 | 0.00 | 0.04 | 54 | 856.0 |
| 20260507061108 | 35 | 3 | 0.0 | 1.0 | 0.00 | 0.00 | 0.04 | 54 | 856.0 |
| 20260507060609 | 35 | 0 | 1.0 | 1.0 | 0.00 | 0.00 | 0.04 | 54 | 856.0 |
| 20260507060108 | 35 | 350 | 0.0 | 1.0 | 0.00 | 0.00 | 0.04 | 55 | 856.0 |
| 20260507055608 | 35 | 343 | 1.0 | 1.0 | 0.00 | 0.00 | 0.04 | 55 | 856.0 |
| 20260507055109 | 35 | 321 | 0.0 | 1.0 | 0.00 | 0.00 | 0.04 | 54 | 856.0 |
| 20260507054608 | 35 | 330 | 0.0 | 1.0 | 0.00 | 0.00 | 0.04 | 55 | 856.0 |
| 20260507054109 | 36 | 297 | 1.0 | 2.0 | 0.00 | 0.00 | 0.04 | 55 | 856.0 |
| 20260507053608 | 36 | 277 | 2.0 | 2.0 | 0.00 | 0.00 | 0.04 | 54 | 856.0 |
| 20260507053108 | 36 | 310 | 3.0 | 4.0 | 0.00 | 0.00 | 0.04 | 54 | 856.0 |
| 20260507052609 | 36 | 296 | 2.0 | 4.0 | 0.00 | 0.00 | 0.04 | 54 | 856.0 |
| 20260507052109 | 36 | 304 | 4.0 | 6.0 | 0.00 | 0.00 | 0.04 | 53 | 856.0 |
| 20260507051608 | 37 | 332 | 1.0 | 2.0 | 0.00 | 0.00 | 0.04 | 54 | 856.0 |
| 20260507051108 | 36 | 310 | 3.0 | 6.0 | 0.00 | 0.00 | 0.04 | 54 | 856.0 |
| 20260507050608 | 36 | 21 | 0.0 | 2.0 | 0.00 | 0.00 | 0.04 | 55 | 856.0 |
| 20260507050108 | 36 | 289 | 1.0 | 2.0 | 0.00 | 0.00 | 0.04 | 55 | 856.0 |
| 20260507045608 | 36 | 325 | 2.0 | 2.0 | 0.00 | 0.00 | 0.04 | 55 | 856.0 |
| 20260507045108 | 36 | 278 | 1.0 | 3.0 | 0.00 | 0.00 | 0.04 | 54 | 856.0 |
| 20260507044608 | 36 | 250 | 3.0 | 4.0 | 0.00 | 0.00 | 0.04 | 54 | 856.0 |
| 20260507044108 | 37 | 260 | 4.0 | 6.0 | 0.00 | 0.00 | 0.04 | 53 | 856.0 |
| 20260507043608 | 37 | 243 | 4.0 | 6.0 | 0.00 | 0.00 | 0.04 | 52 | 856.0 |
| 20260507043108 | 37 | 253 | 1.0 | 2.0 | 0.00 | 0.00 | 0.04 | 53 | 856.0 |
| 20260507042608 | 37 | 255 | 4.0 | 6.0 | 0.00 | 0.00 | 0.04 | 52 | 857.0 |
| 20260507042109 | 37 | 268 | 3.0 | 8.0 | 0.00 | 0.00 | 0.04 | 52 | 857.0 |
| 20260507041609 | 38 | 294 | 4.0 | 5.0 | 0.00 | 0.00 | 0.04 | 51 | 857.0 |
| 20260507041108 | 38 | 262 | 3.0 | 7.0 | 0.00 | 0.00 | 0.04 | 50 | 857.0 |
| 20260507040610 | 38 | 293 | 5.0 | 7.0 | 0.00 | 0.00 | 0.04 | 50 | 857.0 |
| 20260507040108 | 38 | 283 | 4.0 | 8.0 | 0.00 | 0.00 | 0.04 | 50 | 857.0 |
| 20260507035609 | 38 | 258 | 5.0 | 10.0 | 0.00 | 0.00 | 0.04 | 49 | 857.0 |
| 20260507035109 | 38 | 267 | 5.0 | 9.0 | 0.00 | 0.00 | 0.04 | 48 | 857.0 |
| 20260507034609 | 38 | 262 | 3.0 | 6.0 | 0.00 | 0.00 | 0.04 | 49 | 857.0 |
| 20260507034109 | 38 | 224 | 5.0 | 9.0 | 0.00 | 0.00 | 0.04 | 49 | 857.0 |
| 20260507033608 | 38 | 293 | 6.0 | 9.0 | 0.00 | 0.00 | 0.04 | 49 | 857.0 |
| 20260507033108 | 38 | 281 | 4.0 | 9.0 | 0.00 | 0.00 | 0.04 | 49 | 857.0 |
| 20260507032608 | 38 | 252 | 4.0 | 6.0 | 0.00 | 0.00 | 0.04 | 50 | 857.0 |
| 20260507032108 | 38 | 290 | 6.0 | 10.0 | 0.00 | 0.00 | 0.04 | 51 | 857.0 |
| 20260507031127 | 38 | 288 | 2.0 | 4.0 | 0.00 | 0.00 | 0.04 | 52 | 857.0 |
| 20260507030608 | 38 | 267 | 4.0 | 7.0 | 0.00 | 0.00 | 0.04 | 51 | 857.0 |
| 20260507030108 | 38 | 245 | 5.0 | 8.0 | 0.00 | 0.00 | 0.04 | 51 | 857.0 |
| 20260507025608 | 38 | 275 | 5.0 | 10.0 | 0.00 | 0.00 | 0.04 | 51 | 857.0 |
| 20260507025108 | 38 | 273 | 5.0 | 7.0 | 0.00 | 0.00 | 0.04 | 51 | 857.0 |
| 20260507024608 | 38 | 276 | 3.0 | 6.0 | 0.00 | 0.00 | 0.04 | 51 | 857.0 |
| 20260507024109 | 38 | 296 | 4.0 | 7.0 | 0.00 | 0.00 | 0.04 | 50 | 857.0 |
| 20260507023608 | 39 | 258 | 6.0 | 9.0 | 0.00 | 0.00 | 0.04 | 49 | 857.0 |
| 20260507023108 | 40 | 252 | 6.0 | 13.0 | 0.00 | 0.00 | 0.04 | 48 | 857.0 |
| 20260507022608 | 40 | 211 | 4.0 | 6.0 | 0.00 | 0.00 | 0.04 | 47 | 857.0 |
| 20260507022108 | 40 | 215 | 3.0 | 5.0 | 0.00 | 0.00 | 0.04 | 48 | 857.0 |
| 20260507021608 | 39 | 217 | 3.0 | 5.0 | 0.00 | 0.00 | 0.04 | 50 | 857.0 |
| 20260507021109 | 39 | 242 | 4.0 | 8.0 | 0.00 | 0.00 | 0.04 | 49 | 857.0 |
| 20260507020608 | 38 | 260 | 5.0 | 9.0 | 0.00 | 0.00 | 0.04 | 49 | 857.0 |
| 20260507020109 | 38 | 240 | 6.0 | 8.0 | 0.00 | 0.00 | 0.04 | 49 | 857.0 |
| 20260507015608 | 38 | 267 | 5.0 | 10.0 | 0.00 | 0.00 | 0.04 | 50 | 857.0 |
| 20260507015108 | 38 | 246 | 5.0 | 10.0 | 0.00 | 0.00 | 0.04 | 50 | 857.0 |
| 20260507014609 | 38 | 218 | 5.0 | 7.0 | 0.00 | 0.00 | 0.04 | 50 | 857.0 |
| 20260507014108 | 38 | 239 | 4.0 | 6.0 | 0.00 | 0.00 | 0.04 | 50 | 857.0 |
| 20260507013608 | 38 | 263 | 5.0 | 8.0 | 0.00 | 0.00 | 0.04 | 50 | 857.0 |
| 20260507013111 | 38 | 225 | 4.0 | 7.0 | 0.00 | 0.00 | 0.04 | 51 | 857.0 |
| 20260507012608 | 38 | 280 | 5.0 | 9.0 | 0.00 | 0.00 | 0.04 | 50 | 857.0 |
| 20260507012108 | 38 | 239 | 5.0 | 9.0 | 0.00 | 0.00 | 0.04 | 51 | 857.0 |
| 20260507011608 | 38 | 253 | 5.0 | 7.0 | 0.00 | 0.00 | 0.04 | 50 | 857.0 |
| 20260507011108 | 38 | 239 | 5.0 | 8.0 | 0.00 | 0.00 | 0.04 | 50 | 857.0 |
| 20260507010609 | 38 | 249 | 4.0 | 8.0 | 0.00 | 0.00 | 0.04 | 49 | 857.0 |
| 20260507010108 | 38 | 272 | 6.0 | 11.0 | 0.00 | 0.00 | 0.04 | 49 | 857.0 |
| 20260507005609 | 38 | 256 | 6.0 | 13.0 | 0.00 | 0.00 | 0.04 | 48 | 857.0 |
| 20260507005108 | 38 | 267 | 6.0 | 9.0 | 0.00 | 0.00 | 0.04 | 48 | 857.0 |
| 20260507004608 | 39 | 276 | 6.0 | 12.0 | 0.00 | 0.00 | 0.04 | 48 | 857.0 |
| 20260507004108 | 39 | 267 | 5.0 | 9.0 | 0.00 | 0.00 | 0.04 | 47 | 857.0 |
| 20260507003608 | 39 | 255 | 5.0 | 7.0 | 0.00 | 0.00 | 0.04 | 46 | 857.0 |
| 20260507003110 | 39 | 245 | 6.0 | 10.0 | 0.00 | 0.00 | 0.04 | 49 | 857.0 |
| 20260507002609 | 39 | 218 | 6.0 | 10.0 | 0.00 | 0.00 | 0.04 | 49 | 857.0 |
| 20260507002111 | 38 | 297 | 6.0 | 9.0 | 0.00 | 0.00 | 0.04 | 48 | 857.0 |
| 20260507001608 | 39 | 248 | 6.0 | 9.0 | 0.00 | 0.00 | 0.04 | 48 | 857.0 |
| 20260507001108 | 39 | 279 | 5.0 | 9.0 | 0.00 | 0.00 | 0.04 | 49 | 857.0 |
| 20260507000608 | 39 | 210 | 4.0 | 9.0 | 0.00 | 0.00 | 0.04 | 49 | 857.0 |
| 20260507000109 | 38 | 247 | 6.0 | 10.0 | 0.00 | 0.00 | 0.04 | 48 | 857.0 |
| 20260506235608 | 39 | 232 | 9.0 | 13.0 | 0.00 | 0.00 | 0.04 | 47 | 857.0 |
| 20260506235109 | 38 | 237 | 5.0 | 9.0 | 0.00 | 0.00 | 0.04 | 47 | 857.0 |
| 20260506234608 | 39 | 254 | 10.0 | 17.0 | 0.00 | 0.00 | 0.04 | 46 | 857.0 |
| 20260506234109 | 39 | 240 | 8.0 | 13.0 | 0.00 | 0.00 | 0.04 | 47 | 857.0 |
| 20260506233609 | 38 | 268 | 5.0 | 11.0 | 0.00 | 0.00 | 0.04 | 49 | 857.0 |
| 20260506233108 | 38 | 258 | 5.0 | 9.0 | 0.00 | 0.00 | 0.04 | 48 | 857.0 |
| 20260506232609 | 38 | 266 | 4.0 | 9.0 | 0.00 | 0.00 | 0.04 | 50 | 857.0 |
| 20260506232108 | 39 | 228 | 7.0 | 12.0 | 0.00 | 0.00 | 0.04 | 48 | 857.0 |
| 20260506231608 | 39 | 252 | 4.0 | 10.0 | 0.00 | 0.00 | 0.04 | 49 | 857.0 |
| 20260506231108 | 39 | 260 | 3.0 | 7.0 | 0.00 | 0.00 | 0.04 | 48 | 857.0 |
| 20260506230608 | 40 | 290 | 6.0 | 10.0 | 0.00 | 0.00 | 0.04 | 49 | 857.0 |
| 20260506230108 | 39 | 236 | 5.0 | 8.0 | 0.00 | 0.00 | 0.04 | 48 | 857.0 |
| 20260506225608 | 39 | 233 | 7.0 | 10.0 | 0.00 | 0.00 | 0.04 | 51 | 857.0 |
| 20260506225108 | 39 | 240 | 6.0 | 10.0 | 0.00 | 0.00 | 0.04 | 51 | 857.0 |
| 20260506224609 | 39 | 254 | 6.0 | 11.0 | 0.00 | 0.00 | 0.04 | 52 | 857.0 |
| 20260506224108 | 38 | 245 | 3.0 | 4.0 | 0.00 | 0.00 | 0.04 | 53 | 857.0 |
| 20260506223609 | 38 | 235 | 7.0 | 12.0 | 0.00 | 0.00 | 0.04 | 52 | 857.0 |
| 20260506223108 | 39 | 251 | 5.0 | 8.0 | 0.00 | 0.00 | 0.04 | 53 | 857.0 |
| 20260506222608 | 39 | 248 | 6.0 | 10.0 | 0.00 | 0.00 | 0.04 | 53 | 857.0 |
| 20260506222108 | 39 | 227 | 6.0 | 9.0 | 0.00 | 0.00 | 0.04 | 53 | 857.0 |
| 20260506221608 | 38 | 230 | 5.0 | 9.0 | 0.00 | 0.00 | 0.04 | 53 | 857.0 |
| 20260506221109 | 38 | 229 | 7.0 | 11.0 | 0.00 | 0.00 | 0.04 | 52 | 857.0 |
| 20260506220608 | 38 | 231 | 7.0 | 11.0 | 0.00 | 0.00 | 0.04 | 54 | 857.0 |
| 20260506220108 | 38 | 215 | 4.0 | 6.0 | 0.00 | 0.00 | 0.04 | 56 | 857.0 |
| 20260506215608 | 38 | 256 | 7.0 | 11.0 | 0.00 | 0.00 | 0.04 | 56 | 857.0 |
| 20260506215108 | 38 | 243 | 5.0 | 8.0 | 0.00 | 0.00 | 0.04 | 55 | 857.0 |
| 20260506214608 | 37 | 256 | 5.0 | 8.0 | 0.00 | 0.00 | 0.04 | 57 | 857.0 |
| 20260506214110 | 37 | 261 | 7.0 | 10.0 | 0.00 | 0.00 | 0.04 | 58 | 857.0 |
| 20260506213608 | 37 | 239 | 6.0 | 10.0 | 0.00 | 0.00 | 0.04 | 57 | 857.0 |
| 20260506213109 | 37 | 252 | 5.0 | 7.0 | 0.00 | 0.00 | 0.04 | 55 | 857.0 |
| 20260506212609 | 37 | 248 | 4.0 | 8.0 | 0.00 | 0.00 | 0.04 | 57 | 857.0 |
| 20260506212108 | 37 | 243 | 4.0 | 8.0 | 0.00 | 0.00 | 0.04 | 60 | 857.0 |
| 20260506211608 | 37 | 252 | 6.0 | 9.0 | 0.00 | 0.00 | 0.04 | 62 | 857.0 |
| 20260506211109 | 36 | 242 | 2.0 | 5.0 | 0.00 | 0.00 | 0.04 | 65 | 857.0 |
| 20260506210608 | 36 | 207 | 4.0 | 7.0 | 0.00 | 0.00 | 0.04 | 65 | 857.0 |
| 20260506210109 | 36 | 211 | 6.0 | 8.0 | 0.00 | 0.00 | 0.04 | 66 | 857.0 |
| 20260506205609 | 36 | 232 | 6.0 | 8.0 | 0.00 | 0.00 | 0.04 | 68 | 857.0 |
| 20260506205109 | 36 | 251 | 5.0 | 7.0 | 0.00 | 0.00 | 0.04 | 68 | 857.0 |
| 20260506204608 | 35 | 251 | 3.0 | 6.0 | 0.00 | 0.00 | 0.04 | 72 | 857.0 |
| 20260506204109 | 35 | 269 | 4.0 | 6.0 | 0.00 | 0.00 | 0.04 | 73 | 857.0 |
| 20260506203608 | 35 | 266 | 4.0 | 6.0 | 0.00 | 0.00 | 0.04 | 72 | 857.0 |
| 20260506203109 | 35 | 238 | 7.0 | 9.0 | 0.00 | 0.00 | 0.04 | 72 | 857.0 |
| 20260506202608 | 35 | 271 | 5.0 | 11.0 | 0.00 | 0.00 | 0.04 | 74 | 857.0 |
| 20260506202108 | 35 | 243 | 5.0 | 9.0 | 0.00 | 0.00 | 0.04 | 75 | 857.0 |
| 20260506201609 | 35 | 248 | 6.0 | 9.0 | 0.00 | 0.00 | 0.04 | 75 | 857.0 |
| 20260506201109 | 35 | 237 | 2.0 | 4.0 | 0.00 | 0.00 | 0.04 | 78 | 857.0 |
| 20260506200609 | 34 | 259 | 5.0 | 8.0 | 0.00 | 0.00 | 0.04 | 79 | 857.0 |
| 20260506200109 | 34 | 225 | 6.0 | 10.0 | 0.00 | 0.00 | 0.04 | 78 | 857.0 |
| 20260506195608 | 33 | 223 | 6.0 | 8.0 | 0.00 | 0.00 | 0.04 | 78 | 857.0 |
| 20260506195108 | 34 | 269 | 4.0 | 6.0 | 0.00 | 0.00 | 0.04 | 81 | 857.0 |
| 20260506194608 | 33 | 239 | 3.0 | 7.0 | 0.00 | 0.00 | 0.04 | 81 | 857.0 |
| 20260506194109 | 33 | 254 | 3.0 | 5.0 | 0.00 | 0.00 | 0.04 | 83 | 857.0 |
| 20260506193609 | 33 | 255 | 3.0 | 4.0 | 0.00 | 0.00 | 0.04 | 86 | 857.0 |
| 20260506193108 | 33 | 248 | 2.0 | 5.0 | 0.00 | 0.00 | 0.04 | 85 | 856.0 |
| 20260506192608 | 32 | 260 | 2.0 | 5.0 | 0.00 | 0.00 | 0.04 | 87 | 856.0 |
| 20260506192108 | 32 | 260 | 3.0 | 5.0 | 0.00 | 0.00 | 0.04 | 87 | 856.0 |
| 20260506191608 | 32 | 242 | 2.0 | 3.0 | 0.00 | 0.00 | 0.04 | 89 | 856.0 |
| 20260506191109 | 32 | 248 | 3.0 | 8.0 | 0.00 | 0.00 | 0.04 | 89 | 856.0 |
| 20260506190610 | 31 | 249 | 2.0 | 5.0 | 0.00 | 0.00 | 0.04 | 91 | 856.0 |
| 20260506190108 | 31 | 284 | 4.0 | 7.0 | 0.00 | 0.00 | 0.04 | 90 | 856.0 |
| 20260506185608 | 31 | 230 | 3.0 | 6.0 | 0.00 | 0.00 | 0.04 | 92 | 856.0 |
| 20260506185110 | 31 | 257 | 2.0 | 4.0 | 0.00 | 0.00 | 0.04 | 93 | 856.0 |
| 20260506184609 | 31 | 243 | 2.0 | 4.0 | 0.00 | 0.00 | 0.04 | 94 | 856.0 |
| 20260506184109 | 31 | 226 | 2.0 | 3.0 | 0.00 | 0.00 | 0.04 | 95 | 856.0 |
| 20260506183609 | 31 | 261 | 4.0 | 7.0 | 0.00 | 0.00 | 0.04 | 95 | 856.0 |
| 20260506183109 | 31 | 238 | 5.0 | 8.0 | 0.00 | 0.00 | 0.04 | 95 | 856.0 |
| 20260506182609 | 31 | 272 | 2.0 | 4.0 | 0.00 | 0.00 | 0.04 | 98 | 856.0 |
| 20260506182111 | 31 | 236 | 2.0 | 3.0 | 0.00 | 0.00 | 0.04 | 98 | 856.0 |
| 20260506181608 | 30 | 244 | 2.0 | 5.0 | 0.00 | 0.00 | 0.04 | 99 | 856.0 |
| 20260506181108 | 30 | 250 | 5.0 | 8.0 | 0.00 | 0.00 | 0.04 | 99 | 856.0 |
| 20260506180615 | 30 | 258 | 3.0 | 4.0 | 0.00 | 0.00 | 0.04 | 99 | 856.0 |
| 20260506180109 | 30 | 245 | 3.0 | 5.0 | 0.00 | 0.00 | 0.04 | 99 | 856.0 |
| 20260506175609 | 30 | 246 | 3.0 | 5.0 | 0.00 | 0.00 | 0.04 | 99 | 856.0 |
| 20260506175109 | 30 | 261 | 2.0 | 4.0 | 0.00 | 0.00 | 0.04 | 99 | 856.0 |
| 20260506174609 | 30 | 248 | 4.0 | 7.0 | 0.00 | 0.00 | 0.04 | 99 | 856.0 |
| 20260506174109 | 30 | 243 | 3.0 | 7.0 | 0.00 | 0.00 | 0.04 | 99 | 856.0 |
| 20260506173609 | 30 | 242 | 6.0 | 10.0 | 0.00 | 0.00 | 0.04 | 99 | 856.0 |
| 20260506173108 | 30 | 264 | 4.0 | 6.0 | 0.00 | 0.00 | 0.04 | 99 | 856.0 |
| 20260506172609 | 30 | 233 | 4.0 | 6.0 | 0.00 | 0.00 | 0.04 | 99 | 856.0 |
| 20260506172108 | 30 | 245 | 5.0 | 8.0 | 0.00 | 0.00 | 0.04 | 99 | 856.0 |
| 20260506171609 | 30 | 240 | 4.0 | 9.0 | 0.00 | 0.00 | 0.04 | 100 | 856.0 |
| 20260506171108 | 30 | 255 | 3.0 | 6.0 | 0.00 | 0.00 | 0.04 | 100 | 856.0 |
| 20260506170608 | 30 | 231 | 2.0 | 6.0 | 0.00 | 0.00 | 0.04 | 100 | 856.0 |
| 20260506170109 | 30 | 234 | 2.0 | 4.0 | 0.00 | 0.00 | 0.04 | 100 | 856.0 |
| 20260506165608 | 30 | 246 | 4.0 | 7.0 | 0.00 | 0.00 | 0.04 | 100 | 856.0 |
| 20260506165109 | 30 | 223 | 4.0 | 7.0 | 0.00 | 0.00 | 0.04 | 100 | 856.0 |
| 20260506164608 | 30 | 258 | 3.0 | 7.0 | 0.00 | 0.00 | 0.04 | 100 | 856.0 |
| 20260506164108 | 30 | 246 | 4.0 | 6.0 | 0.00 | 0.00 | 0.04 | 100 | 856.0 |
| 20260506163609 | 30 | 255 | 3.0 | 5.0 | 0.00 | 0.00 | 0.04 | 100 | 856.0 |
| 20260506163109 | 30 | 227 | 2.0 | 4.0 | 0.00 | 0.00 | 0.04 | 100 | 856.0 |
| 20260506162608 | 30 | 242 | 4.0 | 7.0 | 0.00 | 0.00 | 0.04 | 100 | 856.0 |
| 20260506162108 | 30 | 238 | 3.0 | 5.0 | 0.00 | 0.00 | 0.04 | 100 | 856.0 |
| 20260506161609 | 30 | 262 | 3.0 | 7.0 | 0.00 | 0.00 | 0.04 | 100 | 856.0 |
| 20260506161108 | 30 | 236 | 4.0 | 5.0 | 0.00 | 0.00 | 0.04 | 100 | 856.0 |
| 20260506160609 | 30 | 259 | 3.0 | 7.0 | 0.00 | 0.00 | 0.04 | 100 | 856.0 |
| 20260506160109 | 30 | 253 | 3.0 | 9.0 | 0.00 | 0.00 | 0.04 | 100 | 856.0 |
| 20260506155610 | 30 | 244 | 3.0 | 5.0 | 0.00 | 0.00 | 0.04 | 100 | 856.0 |
| 20260506155110 | 30 | 249 | 3.0 | 5.0 | 0.00 | 0.00 | 0.04 | 100 | 856.0 |
| 20260506154610 | 30 | 233 | 3.0 | 6.0 | 0.00 | 0.00 | 0.04 | 100 | 856.0 |
| 20260506154109 | 30 | 256 | 2.0 | 4.0 | 0.00 | 0.00 | 0.04 | 100 | 856.0 |
| 20260506153608 | 30 | 248 | 5.0 | 8.0 | 0.00 | 0.00 | 0.04 | 100 | 856.0 |
| 20260506153108 | 30 | 251 | 3.0 | 5.0 | 0.00 | 0.00 | 0.04 | 100 | 856.0 |
| 20260506152608 | 30 | 237 | 5.0 | 7.0 | 0.00 | 0.00 | 0.04 | 99 | 856.0 |
| 20260506152109 | 30 | 252 | 3.0 | 6.0 | 0.00 | 0.00 | 0.04 | 99 | 856.0 |
| 20260506151608 | 30 | 246 | 5.0 | 7.0 | 0.00 | 0.00 | 0.04 | 99 | 856.0 |
| 20260506151108 | 30 | 244 | 4.0 | 7.0 | 0.00 | 0.00 | 0.04 | 99 | 856.0 |
| 20260506150608 | 30 | 249 | 4.0 | 6.0 | 0.00 | 0.00 | 0.04 | 99 | 856.0 |
| 20260506150108 | 30 | 235 | 4.0 | 7.0 | 0.00 | 0.00 | 0.04 | 99 | 856.0 |
| 20260506145612 | 30 | 243 | 3.0 | 5.0 | 0.00 | 0.00 | 0.04 | 99 | 856.0 |
| 20260506145110 | 30 | 236 | 4.0 | 5.0 | 0.00 | 0.00 | 0.04 | 99 | 856.0 |
| 20260506144608 | 30 | 253 | 3.0 | 5.0 | 0.00 | 0.00 | 0.04 | 99 | 856.0 |
| 20260506144111 | 30 | 260 | 3.0 | 3.0 | 0.00 | 0.00 | 0.04 | 99 | 856.0 |
| 20260506143609 | 30 | 258 | 3.0 | 4.0 | 0.00 | 0.00 | 0.04 | 99 | 856.0 |
| 20260506143108 | 30 | 263 | 4.0 | 5.0 | 0.00 | 0.00 | 0.04 | 99 | 856.0 |
| 20260506142609 | 30 | 252 | 3.0 | 5.0 | 0.00 | 0.00 | 0.04 | 99 | 856.0 |
| 20260506142109 | 30 | 257 | 3.0 | 5.0 | 0.00 | 0.00 | 0.04 | 99 | 856.0 |
| 20260506141609 | 30 | 271 | 3.0 | 6.0 | 0.00 | 0.00 | 0.04 | 99 | 856.0 |
| 20260506141109 | 31 | 228 | 2.0 | 6.0 | 0.00 | 0.00 | 0.04 | 99 | 856.0 |
| 20260506140608 | 31 | 259 | 4.0 | 7.0 | 0.00 | 0.00 | 0.04 | 99 | 856.0 |
| 20260506140108 | 31 | 265 | 3.0 | 5.0 | 0.00 | 0.00 | 0.04 | 99 | 856.0 |
| 20260506135608 | 31 | 231 | 5.0 | 8.0 | 0.00 | 0.00 | 0.04 | 100 | 856.0 |
| 20260506135110 | 31 | 268 | 2.0 | 4.0 | 0.00 | 0.00 | 0.04 | 99 | 856.0 |
| 20260506134609 | 31 | 253 | 2.0 | 3.0 | 0.00 | 0.00 | 0.04 | 100 | 856.0 |
| 20260506134118 | 31 | 249 | 2.0 | 3.0 | 0.00 | 0.00 | 0.04 | 100 | 856.0 |
| 20260506133608 | 31 | 240 | 2.0 | 3.0 | 0.00 | 0.00 | 0.04 | 100 | 856.0 |
| 20260506133110 | 31 | 265 | 2.0 | 5.0 | 0.00 | 0.00 | 0.04 | 100 | 856.0 |
| 20260506132608 | 31 | 261 | 3.0 | 6.0 | 0.00 | 0.00 | 0.04 | 100 | 856.0 |
| 20260506132109 | 31 | 240 | 2.0 | 4.0 | 0.00 | 0.00 | 0.04 | 100 | 856.0 |
| 20260506131608 | 31 | 262 | 4.0 | 8.0 | 0.00 | 0.00 | 0.04 | 100 | 856.0 |
| 20260506131109 | 31 | 259 | 4.0 | 7.0 | 0.00 | 0.00 | 0.04 | 100 | 856.0 |
| 20260506130609 | 31 | 247 | 5.0 | 8.0 | 0.00 | 0.00 | 0.04 | 100 | 856.0 |
| 20260506130109 | 31 | 251 | 5.0 | 9.0 | 0.00 | 0.00 | 0.04 | 100 | 856.0 |
| 20260506125608 | 31 | 244 | 4.0 | 8.0 | 0.00 | 0.00 | 0.04 | 100 | 856.0 |
| 20260506125109 | 32 | 251 | 2.0 | 4.0 | 0.00 | 0.00 | 0.04 | 100 | 856.0 |
| 20260506124608 | 32 | 260 | 5.0 | 9.0 | 0.00 | 0.00 | 0.04 | 100 | 856.0 |
| 20260506124109 | 32 | 246 | 4.0 | 6.0 | 0.00 | 0.00 | 0.04 | 100 | 856.0 |
| 20260506123608 | 32 | 229 | 2.0 | 3.0 | 0.00 | 0.00 | 0.04 | 99 | 856.0 |
| 20260506123109 | 32 | 226 | 3.0 | 6.0 | 0.00 | 0.00 | 0.04 | 99 | 856.0 |
| 20260506122609 | 32 | 243 | 4.0 | 7.0 | 0.00 | 0.00 | 0.04 | 99 | 856.0 |
| 20260506122108 | 32 | 246 | 4.0 | 5.0 | 0.00 | 0.00 | 0.04 | 99 | 856.0 |
| 20260506121609 | 32 | 246 | 2.0 | 4.0 | 0.00 | 0.00 | 0.04 | 99 | 856.0 |
| 20260506121108 | 32 | 261 | 4.0 | 8.0 | 0.00 | 0.00 | 0.04 | 99 | 856.0 |
| 20260506120608 | 32 | 257 | 4.0 | 7.0 | 0.00 | 0.00 | 0.04 | 99 | 856.0 |
| 20260506120109 | 32 | 260 | 3.0 | 4.0 | 0.00 | 0.00 | 0.04 | 99 | 856.0 |
| 20260506115609 | 32 | 239 | 3.0 | 5.0 | 0.00 | 0.00 | 0.04 | 99 | 856.0 |
| 20260506115109 | 32 | 239 | 3.0 | 5.0 | 0.00 | 0.00 | 0.04 | 99 | 856.0 |
| 20260506114608 | 32 | 240 | 3.0 | 4.0 | 0.00 | 0.00 | 0.04 | 99 | 856.0 |
| 20260506114109 | 32 | 243 | 4.0 | 7.0 | 0.00 | 0.00 | 0.04 | 99 | 856.0 |
| 20260506113609 | 33 | 247 | 4.0 | 6.0 | 0.00 | 0.00 | 0.04 | 99 | 856.0 |
| 20260506113108 | 33 | 261 | 3.0 | 4.0 | 0.00 | 0.00 | 0.04 | 98 | 856.0 |
| 20260506112609 | 33 | 257 | 5.0 | 10.0 | 0.00 | 0.00 | 0.04 | 98 | 856.0 |
| 20260506112108 | 33 | 250 | 5.0 | 9.0 | 0.00 | 0.00 | 0.04 | 99 | 856.0 |
| 20260506111609 | 33 | 242 | 4.0 | 8.0 | 0.00 | 0.00 | 0.04 | 99 | 856.0 |
| 20260506111108 | 33 | 229 | 2.0 | 6.0 | 0.00 | 0.00 | 0.04 | 99 | 856.0 |
| 20260506110608 | 33 | 242 | 4.0 | 5.0 | 0.00 | 0.00 | 0.04 | 99 | 856.0 |
| 20260506110109 | 33 | 237 | 2.0 | 4.0 | 0.00 | 0.00 | 0.04 | 99 | 856.0 |
| 20260506105608 | 33 | 243 | 3.0 | 5.0 | 0.00 | 0.00 | 0.04 | 99 | 856.0 |
| 20260506105109 | 33 | 236 | 2.0 | 4.0 | 0.00 | 0.00 | 0.04 | 98 | 856.0 |
| 20260506104608 | 33 | 234 | 3.0 | 5.0 | 0.00 | 0.00 | 0.04 | 98 | 856.0 |
| 20260506104109 | 33 | 262 | 3.0 | 6.0 | 0.00 | 0.00 | 0.04 | 98 | 856.0 |
| 20260506103608 | 33 | 247 | 4.0 | 7.0 | 0.00 | 0.00 | 0.04 | 99 | 856.0 |
| 20260506103108 | 33 | 246 | 6.0 | 9.0 | 0.00 | 0.00 | 0.04 | 99 | 856.0 |
| 20260506102613 | 33 | 250 | 4.0 | 7.0 | 0.00 | 0.00 | 0.04 | 99 | 856.0 |
| 20260506102108 | 33 | 253 | 5.0 | 9.0 | 0.00 | 0.00 | 0.04 | 99 | 856.0 |
| 20260506101609 | 34 | 248 | 4.0 | 6.0 | 0.00 | 0.00 | 0.04 | 99 | 856.0 |
| 20260506101109 | 34 | 237 | 5.0 | 8.0 | 0.00 | 0.00 | 0.04 | 99 | 856.0 |
| 20260506100611 | 34 | 244 | 4.0 | 7.0 | 0.00 | 0.00 | 0.04 | 99 | 856.0 |
| 20260506100108 | 34 | 240 | 5.0 | 9.0 | 0.00 | 0.00 | 0.04 | 99 | 856.0 |
| 20260506095609 | 35 | 248 | 4.0 | 6.0 | 0.00 | 0.00 | 0.04 | 99 | 856.0 |
| 20260506095108 | 35 | 228 | 6.0 | 9.0 | 0.00 | 0.00 | 0.04 | 99 | 856.0 |
| 20260506094608 | 35 | 249 | 4.0 | 7.0 | 0.00 | 0.00 | 0.04 | 99 | 856.0 |
| 20260506094108 | 35 | 261 | 4.0 | 6.0 | 0.00 | 0.00 | 0.04 | 99 | 856.0 |
| 20260506093608 | 35 | 252 | 3.0 | 4.0 | 0.00 | 0.00 | 0.04 | 99 | 856.0 |
| 20260506093108 | 35 | 271 | 2.0 | 4.0 | 0.00 | 0.00 | 0.04 | 99 | 856.0 |
| 20260506092608 | 35 | 255 | 3.0 | 7.0 | 0.00 | 0.00 | 0.04 | 99 | 856.0 |
| 20260506092108 | 35 | 258 | 4.0 | 6.0 | 0.00 | 0.00 | 0.04 | 99 | 856.0 |
| 20260506091608 | 35 | 267 | 4.0 | 8.0 | 0.00 | 0.00 | 0.04 | 99 | 856.0 |
| 20260506091108 | 35 | 242 | 2.0 | 4.0 | 0.00 | 0.00 | 0.04 | 99 | 856.0 |
| 20260506090608 | 35 | 256 | 2.0 | 3.0 | 0.00 | 0.00 | 0.04 | 99 | 856.0 |
| 20260506090109 | 35 | 262 | 2.0 | 5.0 | 0.00 | 0.00 | 0.04 | 99 | 856.0 |
| 20260506085609 | 35 | 263 | 2.0 | 4.0 | 0.00 | 0.00 | 0.04 | 99 | 856.0 |
| 20260506085108 | 35 | 263 | 2.0 | 4.0 | 0.00 | 0.00 | 0.04 | 99 | 856.0 |
| 20260506084607 | 35 | 246 | 2.0 | 4.0 | 0.00 | 0.00 | 0.04 | 99 | 856.0 |
| 20260506084108 | 35 | 245 | 3.0 | 4.0 | 0.00 | 0.00 | 0.04 | 99 | 856.0 |
| 20260506083608 | 35 | 265 | 2.0 | 3.0 | 0.00 | 0.00 | 0.04 | 99 | 856.0 |
| 20260506083109 | 35 | 285 | 2.0 | 2.0 | 0.00 | 0.00 | 0.04 | 99 | 856.0 |
| 20260506082608 | 35 | 289 | 2.0 | 2.0 | 0.00 | 0.00 | 0.04 | 99 | 856.0 |
| 20260506082109 | 35 | 286 | 2.0 | 5.0 | 0.03 | 0.00 | 0.04 | 99 | 856.0 |
| 20260506081609 | 35 | 275 | 2.0 | 4.0 | 0.06 | 0.00 | 0.03 | 99 | 856.0 |
| 20260506081108 | 36 | 264 | 1.0 | 3.0 | 0.11 | 0.00 | 0.03 | 99 | 856.0 |
| 20260506080608 | 36 | 248 | 1.0 | 2.0 | 0.13 | 0.00 | 0.02 | 99 | 856.0 |
| 20260506080109 | 36 | 246 | 2.0 | 4.0 | 0.16 | 0.00 | 0.00 | 99 | 857.0 |
| 20260506073108 | 37 | 225 | 5.0 | 8.0 | 0.00 | 0.00 | 0.06 | 99 | 857.0 |
| 20260506072609 | 37 | 205 | 5.0 | 8.0 | 0.00 | 0.00 | 0.06 | 99 | 857.0 |
| 20260506072112 | 37 | 225 | 5.0 | 8.0 | 0.02 | 0.00 | 0.06 | 98 | 857.0 |
| 20260506071608 | 37 | 195 | 5.0 | 7.0 | 0.03 | 0.00 | 0.05 | 98 | 857.0 |
| 20260506071108 | 37 | 205 | 4.0 | 5.0 | 0.03 | 0.00 | 0.05 | 97 | 857.0 |
| 20260506070608 | 37 | 209 | 5.0 | 9.0 | 0.45 | 0.00 | 0.04 | 97 | 857.0 |
| 20260506070108 | 37 | 213 | 4.0 | 6.0 | 0.04 | 0.00 | 0.02 | 96 | 857.0 |